FW5796 Weather Reports


time (UTC)temp
C
wind
direction
speed
KPH
gust
KPH
rain 1hr
cm
rain 24hr
cm
rain mn
cm
humidity
%
barometer
mb
20260507015404 28 39 12.9 22.5 0.00 0.00 0.00 8 1016.3
20260507015134 28 39 9.7 19.3 0.00 0.00 0.00 9 1016.3
20260507014404 28 39 8.0 17.7 0.00 0.00 0.00 9 1016.3
20260507013904 28 39 9.7 17.7 0.00 0.00 0.00 9 1016.3
20260507013634 28 39 8.0 16.1 0.00 0.00 0.00 9 1016.4
20260507012904 28 39 9.7 20.9 0.00 0.00 0.00 9 1016.3
20260507012404 28 39 9.7 20.9 0.00 0.00 0.00 9 1016.4
20260507011900 28 39 8.0 19.3 0.00 0.00 0.00 10 1016.3
20260507011359 28 39 11.3 24.1 0.00 0.00 0.00 10 1016.3
20260507010859 28 39 16.1 29.0 0.00 0.00 0.00 10 1016.3
20260507010631 28 39 14.5 29.0 0.00 0.00 0.00 10 1016.4
20260507005859 28 39 12.9 22.5 0.00 0.00 0.00 10 1016.3
20260507005624 28 39 11.3 22.5 0.00 0.00 0.00 10 1016.4
20260507004850 28 39 8.0 19.3 0.00 0.00 0.00 10 1016.4
20260507004621 28 39 8.0 17.7 0.00 0.00 0.00 10 1016.4
20260507003850 28 39 11.3 20.9 0.00 0.00 0.00 10 1016.4
20260507003348 28 39 8.0 20.9 0.00 0.00 0.00 9 1016.4
20260507002846 28 39 4.8 17.7 0.00 0.00 0.00 10 1016.4
20260507002344 28 39 6.4 17.7 0.00 0.00 0.00 10 1016.4
20260507001841 28 39 8.0 16.1 0.00 0.00 0.00 10 1016.4
20260507001340 28 39 9.7 25.7 0.00 0.00 0.00 10 1016.5
20260507000839 28 39 8.0 25.7 0.00 0.00 0.00 10 1016.5
20260507000340 28 39 8.0 19.3 0.00 0.00 0.00 10 1016.5
20260507000109 28 39 12.9 20.9 0.00 0.00 0.00 10 1016.6
20260506235338 28 39 16.1 37.0 0.00 0.00 0.00 10 1016.5
20260506235112 28 39 4.8 19.3 0.00 0.00 0.00 10 1016.5
20260506234837 28 39 11.3 37.0 0.00 0.00 0.00 10 1016.4
20260506233831 28 39 6.4 17.7 0.00 0.00 0.00 10 1016.5
20260506233332 28 39 8.0 17.7 0.00 0.00 0.00 10 1016.6
20260506233103 27 39 9.7 20.9 0.00 0.00 0.00 10 1016.6
20260506232330 27 39 9.7 24.1 0.00 0.00 0.00 10 1016.7
20260506231828 27 39 8.0 24.1 0.00 0.00 0.00 10 1016.8
20260506231328 27 39 9.7 17.7 0.00 0.00 0.00 11 1016.8
20260506231057 28 39 8.0 19.3 0.00 0.00 0.00 10 1016.9
20260506230325 27 39 8.0 20.9 0.00 0.00 0.00 10 1016.9
20260506230056 27 39 11.3 27.4 0.00 0.00 0.00 10 1016.9
20260506225324 27 39 11.3 27.4 0.00 0.00 0.00 10 1017.1
20260506224819 27 39 8.0 24.1 0.00 0.00 0.00 10 1017.0
20260506224547 27 39 8.0 20.9 0.00 0.00 0.00 10 1017.1
20260506223815 27 39 8.0 19.3 0.00 0.00 0.00 10 1017.3
20260506223313 27 39 9.7 20.9 0.00 0.00 0.00 11 1017.3
20260506222813 27 39 11.3 20.9 0.00 0.00 0.00 10 1017.3
20260506222310 27 39 9.7 20.9 0.00 0.00 0.00 11 1017.4
20260506221809 27 39 9.7 19.3 0.00 0.00 0.00 11 1017.4
20260506221539 27 39 11.3 19.3 0.00 0.00 0.00 11 1017.6
20260506221412 27 39 8.0 19.3 0.00 0.00 0.00 11 1017.8
20260506220538 27 39 6.4 17.7 0.00 0.00 0.00 11 1017.8
20260506215809 26 39 6.4 24.1 0.00 0.00 0.00 12 1017.9
20260506215301 26 39 8.0 24.1 0.00 0.00 0.00 12 1018.0
20260506214801 26 39 6.4 17.7 0.00 0.00 0.00 11 1018.2
20260506214301 26 39 4.8 17.7 0.00 0.00 0.00 12 1018.1
20260506213801 26 39 6.4 17.7 0.00 0.00 0.00 12 1018.3
20260506213533 26 39 6.4 22.5 0.00 0.00 0.00 12 1018.4
20260506212801 26 39 6.4 22.5 0.00 0.00 0.00 12 1018.3
20260506212257 26 39 8.0 17.7 0.00 0.00 0.00 12 1018.5
20260506211757 25 39 9.7 17.7 0.00 0.00 0.00 12 1018.5
20260506211257 26 39 8.0 17.7 0.00 0.00 0.00 12 1018.6
20260506210757 26 39 9.7 19.3 0.00 0.00 0.00 12 1018.6
20260506210255 25 39 11.3 19.3 0.00 0.00 0.00 13 1018.6
20260506205754 25 39 9.7 24.1 0.00 0.00 0.00 12 1018.7
20260506205250 25 39 8.0 24.1 0.00 0.00 0.00 12 1018.7
20260506204751 25 39 8.0 20.9 0.00 0.00 0.00 13 1018.8
20260506204250 25 39 11.3 20.9 0.00 0.00 0.00 13 1018.9
20260506203751 25 39 12.9 20.9 0.00 0.00 0.00 13 1018.9
20260506203249 25 39 11.3 20.9 0.00 0.00 0.00 13 1019.0
20260506203019 25 39 11.3 25.7 0.00 0.00 0.00 14 1018.9
20260506202518 25 39 12.9 25.7 0.00 0.00 0.00 14 1019.1
20260506201747 25 39 12.9 25.7 0.00 0.00 0.00 14 1019.1
20260506201247 25 39 9.7 25.7 0.00 0.00 0.00 14 1019.1
20260506200747 25 39 8.0 22.5 0.00 0.00 0.00 14 1019.2
20260506200517 24 39 11.3 22.5 0.00 0.00 0.00 14 1019.4
20260506195747 25 39 6.4 22.5 0.00 0.00 0.00 14 1019.4
20260506195248 25 39 6.4 14.5 0.00 0.00 0.00 15 1019.6
20260506194745 24 39 9.7 22.5 0.00 0.00 0.00 14 1019.8
20260506194243 24 39 11.3 22.5 0.00 0.00 0.00 14 1019.7
20260506193743 24 39 8.0 20.9 0.00 0.00 0.00 15 1019.7
20260506193243 24 39 6.4 20.9 0.00 0.00 0.00 15 1019.8
20260506192742 24 39 9.7 22.5 0.00 0.00 0.00 15 1019.8
20260506192242 24 39 12.9 22.5 0.00 0.00 0.00 15 1019.9
20260506191743 24 39 11.3 20.9 0.00 0.00 0.00 15 1019.8
20260506191239 23 39 12.9 22.5 0.00 0.00 0.00 15 1019.9
20260506190738 23 39 11.3 22.5 0.00 0.00 0.00 16 1020.0
20260506190239 23 39 6.4 20.9 0.00 0.00 0.00 15 1020.0
20260506185738 23 39 6.4 16.1 0.00 0.00 0.00 16 1020.1
20260506185239 23 39 6.4 19.3 0.00 0.00 0.00 16 1020.1
20260506184739 23 39 6.4 19.3 0.00 0.00 0.00 16 1020.2
20260506184509 23 39 8.0 22.5 0.00 0.00 0.00 17 1020.3
20260506183734 23 39 9.7 22.5 0.00 0.00 0.00 16 1020.5
20260506183235 23 39 11.3 24.1 0.00 0.00 0.00 16 1020.4
20260506183006 23 39 11.3 24.1 0.00 0.00 0.00 16 1020.5
20260506182234 23 39 8.0 19.3 0.00 0.00 0.00 17 1020.4
20260506181739 22 39 9.7 22.5 0.00 0.00 0.00 17 1020.4
20260506181734 22 39 11.3 22.5 0.00 0.00 0.00 17 1020.4
20260506181016 22 39 12.9 22.5 0.00 0.00 0.00 17 1020.5
20260506180740 22 39 9.7 20.9 0.00 0.00 0.00 17 1020.4
20260506180003 22 39 12.9 22.5 0.00 0.00 0.00 17 1020.5
20260506175231 22 39 11.3 22.5 0.00 0.00 0.00 17 1020.6
20260506174730 22 39 9.7 20.9 0.00 0.00 0.00 18 1020.5
20260506174509 22 39 11.3 20.9 0.00 0.00 0.00 18 1020.6
20260506173726 21 39 12.9 19.3 0.00 0.00 0.00 18 1020.6
20260506173226 21 39 11.3 17.7 0.00 0.00 0.00 18 1020.5
20260506172726 21 39 11.3 19.3 0.00 0.00 0.00 19 1020.5
20260506172226 21 39 8.0 19.3 0.00 0.00 0.00 19 1020.5
20260506171727 21 39 8.0 17.7 0.00 0.00 0.00 19 1020.5
20260506171226 21 39 9.7 19.3 0.00 0.00 0.00 19 1020.5
20260506170722 21 39 9.7 19.3 0.00 0.00 0.00 19 1020.5
20260506170221 21 39 8.0 19.3 0.00 0.00 0.00 20 1020.4
20260506165950 21 39 6.4 19.3 0.00 0.00 0.00 20 1020.4
20260506165219 21 39 6.4 17.7 0.00 0.00 0.00 20 1020.4
20260506164948 21 39 4.8 17.7 0.00 0.00 0.00 20 1020.5
20260506164216 21 39 3.2 12.9 0.00 0.00 0.00 20 1020.5
20260506163714 21 39 4.8 12.9 0.00 0.00 0.00 20 1020.5
20260506163212 20 39 3.2 9.7 0.00 0.00 0.00 21 1020.5
20260506162712 20 39 4.8 9.7 0.00 0.00 0.00 22 1020.5
20260506162207 20 39 4.8 9.7 0.00 0.00 0.00 22 1020.4
20260506161706 20 39 4.8 9.7 0.00 0.00 0.00 23 1020.4
20260506161207 20 39 3.2 8.0 0.00 0.00 0.00 23 1020.5
20260506160706 20 39 1.6 6.4 0.00 0.00 0.00 22 1020.5
20260506160204 19 39 1.6 4.8 0.00 0.00 0.00 23 1020.5
20260506155706 19 39 3.2 8.0 0.00 0.00 0.00 24 1020.5
20260506155203 19 39 3.2 8.0 0.00 0.00 0.00 24 1020.4
20260506154702 19 39 0.0 4.8 0.00 0.00 0.00 24 1020.4
20260506154202 18 39 1.6 4.8 0.00 0.00 0.00 25 1020.4
20260506153701 18 39 3.2 8.0 0.00 0.00 0.00 25 1020.4
20260506153159 18 39 3.2 8.0 0.00 0.00 0.00 26 1020.3
20260506152658 17 39 4.8 6.4 0.00 0.00 0.00 26 1020.3
20260506152152 17 39 4.8 8.0 0.00 0.00 0.00 26 1020.3
20260506151652 17 39 3.2 8.0 0.00 0.00 0.00 26 1020.2
20260506151153 17 39 4.8 8.0 0.00 0.00 0.00 26 1020.2
20260506150652 17 39 4.8 6.4 0.00 0.00 0.00 27 1020.2
20260506150152 16 39 4.8 6.4 0.00 0.00 0.00 27 1020.3
20260506145652 16 39 4.8 6.4 0.00 0.00 0.00 27 1020.3
20260506145150 16 39 4.8 8.0 0.00 0.00 0.00 28 1020.2
20260506144648 16 39 6.4 8.0 0.00 0.00 0.00 28 1020.2
20260506144146 15 39 4.8 8.0 0.00 0.00 0.00 28 1020.2
20260506143646 15 39 4.8 8.0 0.00 0.00 0.00 29 1020.1
20260506143151 15 39 4.8 6.4 0.00 0.00 0.00 29 1020.0
20260506142918 14 39 4.8 12.9 0.00 0.00 0.00 30 1020.0
20260506142140 13 39 6.4 12.9 0.00 0.00 0.00 31 1020.0
20260506141640 13 39 8.0 14.5 0.00 0.00 0.00 31 1020.0
20260506141145 13 39 9.7 16.1 0.00 0.00 0.00 31 1020.0
20260506140640 13 39 9.7 16.1 0.00 0.00 0.00 31 1020.1
20260506140140 13 39 9.7 14.5 0.00 0.00 0.00 31 1020.0
20260506135640 13 39 6.4 12.9 0.00 0.00 0.00 33 1019.9
20260506135136 13 39 6.4 12.9 0.00 0.00 0.00 33 1019.7
20260506134636 13 39 6.4 12.9 0.00 0.00 0.00 35 1019.6
20260506134137 12 39 4.8 6.4 0.00 0.00 0.00 36 1019.4
20260506133636 11 39 4.8 6.4 0.00 0.00 0.00 36 1019.4
20260506133134 11 39 4.8 8.0 0.00 0.00 0.00 37 1019.4
20260506132904 11 39 4.8 8.0 0.00 0.00 0.00 36 1019.3
20260506132132 12 39 3.2 8.0 0.00 0.00 0.00 35 1019.2
20260506131630 12 39 3.2 6.4 0.00 0.00 0.00 36 1019.1
20260506131128 12 39 4.8 8.0 0.00 0.00 0.00 34 1019.0
20260506130628 12 39 6.4 8.0 0.00 0.00 0.00 36 1019.0
20260506130128 12 39 6.4 9.7 0.00 0.00 0.00 36 1019.1
20260506125629 12 39 6.4 9.7 0.00 0.00 0.00 36 1019.0
20260506125126 12 39 6.4 8.0 0.00 0.00 0.00 36 1018.9
20260506124624 12 39 6.4 8.0 0.00 0.00 0.00 36 1018.9
20260506124124 11 39 6.4 9.7 0.00 0.00 0.00 37 1018.8
20260506123624 11 39 6.4 9.7 0.00 0.00 0.00 36 1018.7
20260506123122 11 39 6.4 9.7 0.00 0.00 0.00 35 1018.7
20260506122622 12 39 4.8 8.0 0.00 0.00 0.00 34 1018.7
20260506122120 13 39 6.4 8.0 0.00 0.00 0.00 33 1018.7
20260506121617 14 39 6.4 8.0 0.00 0.00 0.00 32 1018.7
20260506121116 14 39 4.8 8.0 0.00 0.00 0.00 32 1018.6
20260506120616 14 39 3.2 8.0 0.00 0.00 0.00 32 1018.7
20260506120348 15 39 4.8 14.5 0.00 0.00 0.00 31 1018.6
20260506115617 15 39 6.4 17.7 0.00 0.00 0.00 31 1018.6
20260506115110 14 39 4.8 17.7 0.00 0.00 0.00 33 1018.6
20260506114610 13 39 3.2 6.4 0.00 0.00 0.00 34 1018.5
20260506114108 13 39 3.2 17.7 0.00 0.00 0.00 33 1018.7
20260506113608 13 39 8.0 17.7 0.00 0.00 0.00 33 1018.5
20260506113107 13 39 12.9 17.7 0.00 0.00 0.00 33 1018.4
20260506112608 13 39 12.9 17.7 0.00 0.00 0.00 33 1018.4
20260506112106 13 39 14.5 19.3 0.00 0.00 0.00 33 1018.4
20260506111834 13 39 14.5 19.3 0.00 0.00 0.00 33 1018.3
20260506111102 13 39 16.1 19.3 0.00 0.00 0.00 33 1018.3
20260506110601 13 39 16.1 19.3 0.00 0.00 0.00 33 1018.2
20260506105602 13 39 14.5 19.3 0.00 0.00 0.00 33 1018.3
20260506105056 13 39 14.5 20.9 0.00 0.00 0.00 33 1018.2
20260506104827 14 39 16.1 20.9 0.00 0.00 0.00 33 1018.2
20260506104326 14 39 14.5 20.9 0.00 0.00 0.00 33 1018.2
20260506103555 14 39 11.3 17.7 0.00 0.00 0.00 33 1018.2
20260506103056 13 39 9.7 14.5 0.00 0.00 0.00 33 1018.3
20260506102556 14 39 9.7 14.5 0.00 0.00 0.00 33 1018.1
20260506102051 14 39 9.7 14.5 0.00 0.00 0.00 34 1018.2
20260506101551 14 39 9.7 16.1 0.00 0.00 0.00 34 1018.2
20260506101052 14 39 12.9 16.1 0.00 0.00 0.00 33 1018.1
20260506100552 14 39 11.3 16.1 0.00 0.00 0.00 33 1018.0
20260506100048 14 39 12.9 16.1 0.00 0.00 0.00 33 1017.9
20260506095548 14 39 11.3 17.7 0.00 0.00 0.00 33 1017.9
20260506095047 14 39 8.0 17.7 0.00 0.00 0.00 34 1017.9
20260506094547 14 39 4.8 9.7 0.00 0.00 0.00 33 1017.9
20260506094047 14 39 3.2 6.4 0.00 0.00 0.00 32 1018.0
20260506093549 14 39 0.0 3.2 0.00 0.00 0.00 32 1017.9
20260506093044 15 39 0.0 3.2 0.00 0.00 0.00 32 1018.0
20260506092815 15 39 1.6 6.4 0.00 0.00 0.00 32 1018.0
20260506092044 15 39 6.4 14.5 0.00 0.00 0.00 32 1018.0
20260506091543 15 39 9.7 16.1 0.00 0.00 0.00 32 1017.9
20260506091048 15 39 9.7 16.1 0.00 0.00 0.00 32 1017.8
20260506091044 15 39 11.3 16.1 0.00 0.00 0.00 32 1017.9
20260506090039 15 39 8.0 14.5 0.00 0.00 0.00 32 1017.8
20260506085540 15 39 8.0 12.9 0.00 0.00 0.00 32 1017.8
20260506085311 15 39 9.7 14.5 0.00 0.00 0.00 32 1017.8
20260506085146 15 39 9.7 14.5 0.00 0.00 0.00 31 1017.8
20260506084310 15 39 9.7 14.5 0.00 0.00 0.00 31 1017.8
20260506083540 15 39 8.0 12.9 0.00 0.00 0.00 31 1017.8
20260506083040 15 39 8.0 14.5 0.00 0.00 0.00 31 1017.6
20260506082538 15 39 8.0 14.5 0.00 0.00 0.00 31 1017.6
20260506082034 15 39 9.7 12.9 0.00 0.00 0.00 31 1017.6
20260506081533 15 39 11.3 16.1 0.00 0.00 0.00 31 1017.4
20260506081034 16 39 12.9 16.1 0.00 0.00 0.00 31 1017.5
20260506080534 16 39 11.3 16.1 0.00 0.00 0.00 31 1017.4
20260506073528 16 39 12.9 16.1 0.00 0.00 0.00 30 1017.6
20260506073257 16 39 11.3 16.1 0.00 0.00 0.00 30 1017.5
20260506072524 16 39 11.3 16.1 0.00 0.00 0.00 30 1017.6
20260506072023 16 39 12.9 16.1 0.00 0.00 0.00 30 1017.5
20260506071752 16 39 11.3 16.1 0.00 0.00 0.00 29 1017.6
20260506071025 16 39 14.5 19.3 0.00 0.00 0.00 29 1017.5
20260506071021 16 39 12.9 19.3 0.00 0.00 0.00 29 1017.6
20260506062512 16 39 12.9 17.7 0.00 0.00 0.00 29 1017.1
20260506062009 16 39 12.9 17.7 0.00 0.00 0.00 29 1017.0
20260506061741 16 39 12.9 16.1 0.00 0.00 0.00 29 1017.0
20260506061007 16 39 11.3 17.7 0.00 0.00 0.00 29 1016.9
20260506060507 16 39 12.9 17.7 0.00 0.00 0.00 28 1016.8
20260506050955 17 39 8.0 12.9 0.00 0.00 0.00 25 1016.6
20260506050726 17 39 8.0 12.9 0.00 0.00 0.00 25 1016.6
20260506044951 17 39 9.7 12.9 0.00 0.00 0.00 23 1016.4
20260506044451 17 39 9.7 14.5 0.00 0.00 0.00 22 1016.3
20260506043949 18 39 11.3 14.5 0.00 0.00 0.00 21 1016.3
20260506043449 18 39 11.3 16.1 0.00 0.00 0.00 20 1016.2
20260506043219 18 39 12.9 16.1 0.00 0.00 0.00 19 1016.1
20260506042448 17 39 12.9 16.1 0.00 0.00 0.00 19 1016.1
20260506041945 17 39 12.9 16.1 0.00 0.00 0.00 19 1016.1
20260506041445 17 39 9.7 16.1 0.00 0.00 0.00 18 1015.8
20260506040945 17 39 8.0 12.9 0.00 0.00 0.00 18 1015.8
20260506040716 18 39 8.0 9.7 0.00 0.00 0.00 18 1015.7
20260506035943 18 39 8.0 9.7 0.00 0.00 0.00 18 1015.6
20260506035444 18 39 6.4 9.7 0.00 0.00 0.00 17 1015.5
20260506034941 18 39 6.4 8.0 0.00 0.00 0.00 17 1015.5
20260506034441 18 39 4.8 8.0 0.00 0.00 0.00 17 1015.4
20260506034211 19 39 3.2 8.0 0.00 0.00 0.00 16 1015.4
20260506033439 20 39 3.2 4.8 0.00 0.00 0.00 16 1015.3
20260506032941 20 39 3.2 6.4 0.00 0.00 0.00 16 1015.2
20260506032937 20 39 3.2 6.4 0.00 0.00 0.00 16 1015.2
20260506031933 20 39 4.8 8.0 0.00 0.00 0.00 16 1015.0
20260506031432 20 39 6.4 9.7 0.00 0.00 0.00 16 1015.0
20260506030933 20 39 4.8 9.7 0.00 0.00 0.00 15 1014.9
20260506030432 20 39 4.8 8.0 0.00 0.00 0.00 15 1014.8
20260506025930 20 39 4.8 8.0 0.00 0.00 0.00 15 1014.7
20260506025431 20 39 4.8 8.0 0.00 0.00 0.00 16 1014.7
20260506024927 20 39 4.8 14.5 0.00 0.00 0.00 16 1014.7
20260506024426 20 39 6.4 14.5 0.00 0.00 0.00 15 1014.6
20260506023924 20 39 8.0 12.9 0.00 0.00 0.00 15 1014.5
20260506023425 20 39 9.7 14.5 0.00 0.00 0.00 15 1014.4
20260506022925 20 39 9.7 17.7 0.00 0.00 0.00 15 1014.3
20260506022425 21 39 9.7 17.7 0.00 0.00 0.00 15 1014.3
20260506022155 21 39 8.0 16.1 0.00 0.00 0.00 15 1014.1
20260506021425 21 39 11.3 19.3 0.00 0.00 0.00 15 1014.0
20260506021154 21 39 12.9 19.3 0.00 0.00 0.00 15 1014.0
20260506020421 21 39 12.9 22.5 0.00 0.00 0.00 15 1013.8
20260506015920 21 39 12.9 22.5 0.00 0.00 0.00 15 1013.9